owner,sensor,date,latitude,longitude,vertical_datum,wind_speed,wind_to_direction,wind_speed_of_gust,qcFlag 
DISL,ioos:station:DISL:MHPA:1,2013-08-01T00:00:00Z,30.6671,-87.9365,8.5,2.77,161.2,-9999.0,'1111122,1111122,1111122' 
DISL,ioos:station:DISL:MHPA:1,2013-08-01T00:30:00Z,30.6671,-87.9365,8.5,2.5,140.0,-9999.0,'1111122,1111122,1111122' 
DISL,ioos:station:DISL:MHPA:1,2013-08-01T01:00:00Z,30.6671,-87.9365,8.5,1.42,81.7,-9999.0,'1111122,1111122,1111122' 
DISL,ioos:station:DISL:MHPA:1,2013-08-01T01:30:00Z,30.6671,-87.9365,8.5,1.32,113.8,-9999.0,'1111122,1111122,1111122' 
DISL,ioos:station:DISL:MHPA:1,2013-08-01T02:00:00Z,30.6671,-87.9365,8.5,1.74,122.8,-9999.0,'1111122,1111122,1111122' 
DISL,ioos:station:DISL:MHPA:1,2013-08-01T02:30:00Z,30.6671,-87.9365,8.5,1.96,103.2,-9999.0,'1111122,1111122,1111122' 
DISL,ioos:station:DISL:MHPA:1,2013-08-01T03:00:00Z,30.6671,-87.9365,8.5,1.92,138.0,-9999.0,'1111122,1111122,1111122' 
DISL,ioos:station:DISL:MHPA:1,2013-08-01T03:30:00Z,30.6671,-87.9365,8.5,1.83,155.9,-9999.0,'1111122,1111122,1111122' 
DISL,ioos:station:DISL:MHPA:1,2013-08-01T04:00:00Z,30.6671,-87.9365,8.5,1.84,126.9,-9999.0,'1111122,1111122,1111122' 
DISL,ioos:station:DISL:MHPA:1,2013-08-01T04:30:00Z,30.6671,-87.9365,8.5,4.23,209.5,-9999.0,'1111122,1111122,1111122' 
DISL,ioos:station:DISL:MHPA:1,2013-08-01T05:00:00Z,30.6671,-87.9365,8.5,4.61,211.7,-9999.0,'1111122,1111122,1111122' 
DISL,ioos:station:DISL:MHPA:1,2013-08-01T05:30:00Z,30.6671,-87.9365,8.5,5.01,208.4,-9999.0,'1111122,1111122,1111122' 
DISL,ioos:station:DISL:MHPA:1,2013-08-01T06:00:00Z,30.6671,-87.9365,8.5,5.22,218.5,-9999.0,'1111122,1111122,1111122' 
DISL,ioos:station:DISL:MHPA:1,2013-08-01T06:30:00Z,30.6671,-87.9365,8.5,5.62,224.3,-9999.0,'1111122,1111122,1111122' 
DISL,ioos:station:DISL:MHPA:1,2013-08-01T07:00:00Z,30.6671,-87.9365,8.5,5.11,225.6,-9999.0,'1111122,1111122,1111122' 
DISL,ioos:station:DISL:MHPA:1,2013-08-01T07:30:00Z,30.6671,-87.9365,8.5,5.07,229.8,-9999.0,'1111122,1111122,1111122' 
DISL,ioos:station:DISL:MHPA:1,2013-08-01T08:00:00Z,30.6671,-87.9365,8.5,3.93,234.3,-9999.0,'1111122,1111122,1111122' 
DISL,ioos:station:DISL:MHPA:1,2013-08-01T08:30:00Z,30.6671,-87.9365,8.5,4.75,239.3,-9999.0,'1111122,1111122,1111122' 
DISL,ioos:station:DISL:MHPA:1,2013-08-01T09:00:00Z,30.6671,-87.9365,8.5,4.31,256.5,-9999.0,'1111122,1111122,1111122' 
DISL,ioos:station:DISL:MHPA:1,2013-08-01T09:30:00Z,30.6671,-87.9365,8.5,3.56,273.3,-9999.0,'1111122,1111122,1111122' 
DISL,ioos:station:DISL:MHPA:1,2013-08-01T10:00:00Z,30.6671,-87.9365,8.5,2.98,293.0,-9999.0,'1111122,1111122,1111122' 
DISL,ioos:station:DISL:MHPA:1,2013-08-01T10:30:00Z,30.6671,-87.9365,8.5,2.3,286.2,-9999.0,'1111122,1111122,1111122' 
DISL,ioos:station:DISL:MHPA:1,2013-08-01T11:00:00Z,30.6671,-87.9365,8.5,3.06,275.7,-9999.0,'1111122,1111122,1111122' 
DISL,ioos:station:DISL:MHPA:1,2013-08-01T11:30:00Z,30.6671,-87.9365,8.5,3.51,291.1,-9999.0,'1111122,1111122,1111122' 
DISL,ioos:station:DISL:MHPA:1,2013-08-01T12:00:00Z,30.6671,-87.9365,8.5,3.23,295.5,-9999.0,'1111122,1111122,1111122' 
DISL,ioos:station:DISL:MHPA:1,2013-08-01T12:30:00Z,30.6671,-87.9365,8.5,2.85,300.1,-9999.0,'1111122,1111122,1111122' 
DISL,ioos:station:DISL:MHPA:1,2013-08-01T13:00:00Z,30.6671,-87.9365,8.5,3.66,303.9,-9999.0,'1111122,1111122,1111122' 
DISL,ioos:station:DISL:MHPA:1,2013-08-01T13:30:00Z,30.6671,-87.9365,8.5,2.24,307.7,-9999.0,'1111122,1111122,1111122' 
DISL,ioos:station:DISL:MHPA:1,2013-08-01T14:00:00Z,30.6671,-87.9365,8.5,2.28,300.8,-9999.0,'1111122,1111122,1111122' 
DISL,ioos:station:DISL:MHPA:1,2013-08-01T14:30:00Z,30.6671,-87.9365,8.5,3.75,296.2,-9999.0,'1111122,1111122,1111122' 
DISL,ioos:station:DISL:MHPA:1,2013-08-01T15:00:00Z,30.6671,-87.9365,8.5,2.13,277.0,-9999.0,'1111122,1111122,1111122' 
DISL,ioos:station:DISL:MHPA:1,2013-08-01T15:30:00Z,30.6671,-87.9365,8.5,2.22,229.5,-9999.0,'1111122,1111122,1111122' 
DISL,ioos:station:DISL:MHPA:1,2013-08-01T16:00:00Z,30.6671,-87.9365,8.5,1.18,216.3,-9999.0,'1111122,1111122,1111122' 
DISL,ioos:station:DISL:MHPA:1,2013-08-01T16:30:00Z,30.6671,-87.9365,8.5,2.69,287.8,-9999.0,'1111122,1111122,1111122' 
DISL,ioos:station:DISL:MHPA:1,2013-08-01T17:00:00Z,30.6671,-87.9365,8.5,3.41,297.3,-9999.0,'1111122,1111122,1111122' 
DISL,ioos:station:DISL:MHPA:1,2013-08-01T17:30:00Z,30.6671,-87.9365,8.5,3.6,284.2,-9999.0,'1111122,1111122,1111122' 
DISL,ioos:station:DISL:MHPA:1,2013-08-01T18:00:00Z,30.6671,-87.9365,8.5,4.69,182.9,-9999.0,'1111122,1111122,1111122' 
DISL,ioos:station:DISL:MHPA:1,2013-08-01T18:30:00Z,30.6671,-87.9365,8.5,4.15,186.0,-9999.0,'1111122,1111122,1111122' 
DISL,ioos:station:DISL:MHPA:1,2013-08-01T19:00:00Z,30.6671,-87.9365,8.5,4.73,172.4,-9999.0,'1111122,1111122,1111122' 
DISL,ioos:station:DISL:MHPA:1,2013-08-01T19:30:00Z,30.6671,-87.9365,8.5,0.54,84.9,-9999.0,'1111122,1111122,1111122' 
DISL,ioos:station:DISL:MHPA:1,2013-08-01T20:00:00Z,30.6671,-87.9365,8.5,3.03,176.7,-9999.0,'1111122,1111122,1111122' 
DISL,ioos:station:DISL:MHPA:1,2013-08-01T20:30:00Z,30.6671,-87.9365,8.5,7.7,239.9,-9999.0,'1111122,1111122,1111122' 
DISL,ioos:station:DISL:MHPA:1,2013-08-01T21:00:00Z,30.6671,-87.9365,8.5,7.16,160.2,-9999.0,'1111122,1111122,1111122' 
DISL,ioos:station:DISL:MHPA:1,2013-08-01T21:30:00Z,30.6671,-87.9365,8.5,4.16,119.5,-9999.0,'1111122,1111122,1111122' 
DISL,ioos:station:DISL:MHPA:1,2013-08-01T22:00:00Z,30.6671,-87.9365,8.5,4.63,247.3,-9999.0,'1111122,1111122,1111122' 
DISL,ioos:station:DISL:MHPA:1,2013-08-01T22:30:00Z,30.6671,-87.9365,8.5,4.9,265.6,-9999.0,'1111122,1111122,1111122' 
DISL,ioos:station:DISL:MHPA:1,2013-08-01T23:00:00Z,30.6671,-87.9365,8.5,2.34,319.7,-9999.0,'1111122,1111122,1111122' 
DISL,ioos:station:DISL:MHPA:1,2013-08-01T23:30:00Z,30.6671,-87.9365,8.5,1.05,42.12,-9999.0,'1111122,1111122,1111122' 
DISL,ioos:station:DISL:MHPA:1,2013-08-02T00:00:00Z,30.6671,-87.9365,8.5,1.59,357.9,-9999.0,'1111122,1111122,1111122' 
DISL,ioos:station:DISL:MHPA:1,2013-08-02T00:30:00Z,30.6671,-87.9365,8.5,2.13,18.91,-9999.0,'1111122,1111122,1111122' 
DISL,ioos:station:DISL:MHPA:1,2013-08-02T01:00:00Z,30.6671,-87.9365,8.5,0.99,111.0,-9999.0,'1111122,1111122,1111122' 
DISL,ioos:station:DISL:MHPA:1,2013-08-02T01:30:00Z,30.6671,-87.9365,8.5,0.79,46.29,-9999.0,'1111122,1111122,1111122' 
DISL,ioos:station:DISL:MHPA:1,2013-08-02T02:00:00Z,30.6671,-87.9365,8.5,0.88,252.3,-9999.0,'1111122,1111122,1111122' 
DISL,ioos:station:DISL:MHPA:1,2013-08-02T02:30:00Z,30.6671,-87.9365,8.5,1.43,143.8,-9999.0,'1111122,1111122,1111122' 
DISL,ioos:station:DISL:MHPA:1,2013-08-02T03:00:00Z,30.6671,-87.9365,8.5,1.07,79.8,-9999.0,'1111122,1111122,1111122' 
DISL,ioos:station:DISL:MHPA:1,2013-08-02T03:30:00Z,30.6671,-87.9365,8.5,1.13,138.8,-9999.0,'1111122,1111122,1111122' 
DISL,ioos:station:DISL:MHPA:1,2013-08-02T04:00:00Z,30.6671,-87.9365,8.5,2.0,156.4,-9999.0,'1111122,1111122,1111122' 
DISL,ioos:station:DISL:MHPA:1,2013-08-02T04:30:00Z,30.6671,-87.9365,8.5,1.31,107.5,-9999.0,'1111122,1111122,1111122' 
DISL,ioos:station:DISL:MHPA:1,2013-08-02T05:00:00Z,30.6671,-87.9365,8.5,0.98,85.8,-9999.0,'1111122,1111122,1111122' 
DISL,ioos:station:DISL:MHPA:1,2013-08-02T05:30:00Z,30.6671,-87.9365,8.5,1.82,109.1,-9999.0,'1111122,1111122,1111122' 
DISL,ioos:station:DISL:MHPA:1,2013-08-02T06:00:00Z,30.6671,-87.9365,8.5,1.12,103.2,-9999.0,'1111122,1111122,1111122' 
DISL,ioos:station:DISL:MHPA:1,2013-08-02T06:30:00Z,30.6671,-87.9365,8.5,1.16,96.0,-9999.0,'1111122,1111122,1111122' 
DISL,ioos:station:DISL:MHPA:1,2013-08-02T07:00:00Z,30.6671,-87.9365,8.5,0.89,1.966,-9999.0,'1111122,1111122,1111122' 
DISL,ioos:station:DISL:MHPA:1,2013-08-02T07:30:00Z,30.6671,-87.9365,8.5,1.32,33.01,-9999.0,'1111122,1111122,1111122' 
DISL,ioos:station:DISL:MHPA:1,2013-08-02T08:00:00Z,30.6671,-87.9365,8.5,1.24,27.16,-9999.0,'1111122,1111122,1111122' 
DISL,ioos:station:DISL:MHPA:1,2013-08-02T08:30:00Z,30.6671,-87.9365,8.5,1.93,4.028,-9999.0,'1111122,1111122,1111122' 
DISL,ioos:station:DISL:MHPA:1,2013-08-02T09:00:00Z,30.6671,-87.9365,8.5,1.13,26.63,-9999.0,'1111122,1111122,1111122' 
DISL,ioos:station:DISL:MHPA:1,2013-08-02T09:30:00Z,30.6671,-87.9365,8.5,0.67,71.7,-9999.0,'1111122,1111122,1111122' 
DISL,ioos:station:DISL:MHPA:1,2013-08-02T10:00:00Z,30.6671,-87.9365,8.5,0.86,27.33,-9999.0,'1111122,1111122,1111122' 
DISL,ioos:station:DISL:MHPA:1,2013-08-02T10:30:00Z,30.6671,-87.9365,8.5,1.21,20.34,-9999.0,'1111122,1111122,1111122' 
DISL,ioos:station:DISL:MHPA:1,2013-08-02T11:00:00Z,30.6671,-87.9365,8.5,1.31,26.81,-9999.0,'1111122,1111122,1111122' 
DISL,ioos:station:DISL:MHPA:1,2013-08-02T11:30:00Z,30.6671,-87.9365,8.5,0.97,21.27,-9999.0,'1111122,1111122,1111122' 
DISL,ioos:station:DISL:MHPA:1,2013-08-02T12:00:00Z,30.6671,-87.9365,8.5,1.02,24.82,-9999.0,'1111122,1111122,1111122' 
DISL,ioos:station:DISL:MHPA:1,2013-08-02T12:30:00Z,30.6671,-87.9365,8.5,2.0,2.567,-9999.0,'1111122,1111122,1111122' 
DISL,ioos:station:DISL:MHPA:1,2013-08-02T13:00:00Z,30.6671,-87.9365,8.5,1.51,14.28,-9999.0,'1111122,1111122,1111122' 
DISL,ioos:station:DISL:MHPA:1,2013-08-02T13:30:00Z,30.6671,-87.9365,8.5,1.85,358.4,-9999.0,'1111122,1111122,1111122' 
DISL,ioos:station:DISL:MHPA:1,2013-08-02T14:00:00Z,30.6671,-87.9365,8.5,1.69,22.51,-9999.0,'1111122,1111122,1111122' 
DISL,ioos:station:DISL:MHPA:1,2013-08-02T14:30:00Z,30.6671,-87.9365,8.5,2.4,7.46,-9999.0,'1111122,1111122,1111122' 
DISL,ioos:station:DISL:MHPA:1,2013-08-02T15:00:00Z,30.6671,-87.9365,8.5,1.8,348.4,-9999.0,'1111122,1111122,1111122' 
DISL,ioos:station:DISL:MHPA:1,2013-08-02T15:30:00Z,30.6671,-87.9365,8.5,1.61,346.7,-9999.0,'1111122,1111122,1111122' 
DISL,ioos:station:DISL:MHPA:1,2013-08-02T16:00:00Z,30.6671,-87.9365,8.5,2.0,328.4,-9999.0,'1111122,1111122,1111122' 
DISL,ioos:station:DISL:MHPA:1,2013-08-02T16:30:00Z,30.6671,-87.9365,8.5,1.72,18.27,-9999.0,'1111122,1111122,1111122' 
DISL,ioos:station:DISL:MHPA:1,2013-08-02T17:00:00Z,30.6671,-87.9365,8.5,1.42,4.222,-9999.0,'1111122,1111122,1111122' 
DISL,ioos:station:DISL:MHPA:1,2013-08-02T17:30:00Z,30.6671,-87.9365,8.5,1.89,337.0,-9999.0,'1111122,1111122,1111122' 
DISL,ioos:station:DISL:MHPA:1,2013-08-02T18:00:00Z,30.6671,-87.9365,8.5,1.73,337.6,-9999.0,'1111122,1111122,1111122' 
DISL,ioos:station:DISL:MHPA:1,2013-08-02T18:30:00Z,30.6671,-87.9365,8.5,2.68,295.6,-9999.0,'1111122,1111122,1111122' 
DISL,ioos:station:DISL:MHPA:1,2013-08-02T19:00:00Z,30.6671,-87.9365,8.5,1.5,296.0,-9999.0,'1111122,1111122,1111122' 
DISL,ioos:station:DISL:MHPA:1,2013-08-02T19:30:00Z,30.6671,-87.9365,8.5,3.78,297.1,-9999.0,'1111122,1111122,1111122' 
DISL,ioos:station:DISL:MHPA:1,2013-08-02T20:00:00Z,30.6671,-87.9365,8.5,3.03,297.9,-9999.0,'1111122,1111122,1111122' 
DISL,ioos:station:DISL:MHPA:1,2013-08-02T20:30:00Z,30.6671,-87.9365,8.5,2.26,285.7,-9999.0,'1111122,1111122,1111122' 
DISL,ioos:station:DISL:MHPA:1,2013-08-02T21:00:00Z,30.6671,-87.9365,8.5,2.82,309.3,-9999.0,'1111122,1111122,1111122' 
DISL,ioos:station:DISL:MHPA:1,2013-08-02T21:30:00Z,30.6671,-87.9365,8.5,2.35,332.8,-9999.0,'1111122,1111122,1111122' 
DISL,ioos:station:DISL:MHPA:1,2013-08-02T22:00:00Z,30.6671,-87.9365,8.5,4.35,196.0,-9999.0,'1111122,1111122,1111122' 
DISL,ioos:station:DISL:MHPA:1,2013-08-02T22:30:00Z,30.6671,-87.9365,8.5,4.32,197.3,-9999.0,'1111122,1111122,1111122' 
DISL,ioos:station:DISL:MHPA:1,2013-08-02T23:00:00Z,30.6671,-87.9365,8.5,4.3,198.8,-9999.0,'1111122,1111122,1111122' 
DISL,ioos:station:DISL:MHPA:1,2013-08-02T23:30:00Z,30.6671,-87.9365,8.5,4.49,206.1,-9999.0,'1111122,1111122,1111122' 
DISL,ioos:station:DISL:MHPA:1,2013-08-03T00:00:00Z,30.6671,-87.9365,8.5,4.51,217.9,-9999.0,'1111122,1111122,1111122' 
DISL,ioos:station:DISL:MHPA:1,2013-08-03T00:30:00Z,30.6671,-87.9365,8.5,3.84,189.1,-9999.0,'1111122,1111122,1111122' 
DISL,ioos:station:DISL:MHPA:1,2013-08-03T01:00:00Z,30.6671,-87.9365,8.5,3.51,180.8,-9999.0,'1111122,1111122,1111122' 
DISL,ioos:station:DISL:MHPA:1,2013-08-03T01:30:00Z,30.6671,-87.9365,8.5,3.42,185.8,-9999.0,'1111122,1111122,1111122' 
DISL,ioos:station:DISL:MHPA:1,2013-08-03T02:00:00Z,30.6671,-87.9365,8.5,3.43,228.3,-9999.0,'1111122,1111122,1111122' 
DISL,ioos:station:DISL:MHPA:1,2013-08-03T02:30:00Z,30.6671,-87.9365,8.5,3.45,219.5,-9999.0,'1111122,1111122,1111122' 
DISL,ioos:station:DISL:MHPA:1,2013-08-03T03:00:00Z,30.6671,-87.9365,8.5,3.09,218.0,-9999.0,'1111122,1111122,1111122' 
DISL,ioos:station:DISL:MHPA:1,2013-08-03T03:30:00Z,30.6671,-87.9365,8.5,2.41,221.3,-9999.0,'1111122,1111122,1111122' 
DISL,ioos:station:DISL:MHPA:1,2013-08-03T04:00:00Z,30.6671,-87.9365,8.5,2.1,208.5,-9999.0,'1111122,1111122,1111122' 
DISL,ioos:station:DISL:MHPA:1,2013-08-03T04:30:00Z,30.6671,-87.9365,8.5,2.15,220.6,-9999.0,'1111122,1111122,1111122' 
DISL,ioos:station:DISL:MHPA:1,2013-08-03T05:00:00Z,30.6671,-87.9365,8.5,2.35,260.4,-9999.0,'1111122,1111122,1111122' 
DISL,ioos:station:DISL:MHPA:1,2013-08-03T05:30:00Z,30.6671,-87.9365,8.5,2.53,253.0,-9999.0,'1111122,1111122,1111122' 
DISL,ioos:station:DISL:MHPA:1,2013-08-03T06:00:00Z,30.6671,-87.9365,8.5,2.78,222.5,-9999.0,'1111122,1111122,1111122' 
DISL,ioos:station:DISL:MHPA:1,2013-08-03T06:30:00Z,30.6671,-87.9365,8.5,3.01,233.9,-9999.0,'1111122,1111122,1111122' 
DISL,ioos:station:DISL:MHPA:1,2013-08-03T07:00:00Z,30.6671,-87.9365,8.5,2.95,253.2,-9999.0,'1111122,1111122,1111122' 
DISL,ioos:station:DISL:MHPA:1,2013-08-03T07:30:00Z,30.6671,-87.9365,8.5,3.0,236.1,-9999.0,'1111122,1111122,1111122' 
DISL,ioos:station:DISL:MHPA:1,2013-08-03T08:00:00Z,30.6671,-87.9365,8.5,2.9,229.7,-9999.0,'1111122,1111122,1111122' 
DISL,ioos:station:DISL:MHPA:1,2013-08-03T08:30:00Z,30.6671,-87.9365,8.5,1.19,280.9,-9999.0,'1111122,1111122,1111122' 
DISL,ioos:station:DISL:MHPA:1,2013-08-03T09:00:00Z,30.6671,-87.9365,8.5,1.66,1.315,-9999.0,'1111122,1111122,1111122' 
DISL,ioos:station:DISL:MHPA:1,2013-08-03T09:30:00Z,30.6671,-87.9365,8.5,1.27,5.299,-9999.0,'1111122,1111122,1111122' 
DISL,ioos:station:DISL:MHPA:1,2013-08-03T10:00:00Z,30.6671,-87.9365,8.5,1.41,14.75,-9999.0,'1111122,1111122,1111122' 
DISL,ioos:station:DISL:MHPA:1,2013-08-03T10:30:00Z,30.6671,-87.9365,8.5,1.34,8.53,-9999.0,'1111122,1111122,1111122' 
DISL,ioos:station:DISL:MHPA:1,2013-08-03T11:00:00Z,30.6671,-87.9365,8.5,0.96,23.7,-9999.0,'1111122,1111122,1111122' 
DISL,ioos:station:DISL:MHPA:1,2013-08-03T11:30:00Z,30.6671,-87.9365,8.5,1.32,13.46,-9999.0,'1111122,1111122,1111122' 
DISL,ioos:station:DISL:MHPA:1,2013-08-03T12:00:00Z,30.6671,-87.9365,8.5,1.43,10.26,-9999.0,'1111122,1111122,1111122' 
DISL,ioos:station:DISL:MHPA:1,2013-08-03T12:30:00Z,30.6671,-87.9365,8.5,1.19,9.83,-9999.0,'1111122,1111122,1111122' 
DISL,ioos:station:DISL:MHPA:1,2013-08-03T13:00:00Z,30.6671,-87.9365,8.5,0.5,28.21,-9999.0,'1111122,1111122,1111122' 
DISL,ioos:station:DISL:MHPA:1,2013-08-03T13:30:00Z,30.6671,-87.9365,8.5,0.64,334.2,-9999.0,'1111122,1111122,1111122' 
DISL,ioos:station:DISL:MHPA:1,2013-08-03T14:00:00Z,30.6671,-87.9365,8.5,0.96,349.2,-9999.0,'1111122,1111122,1111122' 
DISL,ioos:station:DISL:MHPA:1,2013-08-03T14:30:00Z,30.6671,-87.9365,8.5,1.16,332.9,-9999.0,'1111122,1111122,1111122' 
DISL,ioos:station:DISL:MHPA:1,2013-08-03T15:00:00Z,30.6671,-87.9365,8.5,1.3,334.2,-9999.0,'1111122,1111122,1111122' 
DISL,ioos:station:DISL:MHPA:1,2013-08-03T15:30:00Z,30.6671,-87.9365,8.5,1.49,284.7,-9999.0,'1111122,1111122,1111122' 
DISL,ioos:station:DISL:MHPA:1,2013-08-03T16:00:00Z,30.6671,-87.9365,8.5,0.72,279.1,-9999.0,'1111122,1111122,1111122' 
DISL,ioos:station:DISL:MHPA:1,2013-08-03T16:30:00Z,30.6671,-87.9365,8.5,1.11,300.3,-9999.0,'1111122,1111122,1111122' 
DISL,ioos:station:DISL:MHPA:1,2013-08-03T17:00:00Z,30.6671,-87.9365,8.5,0.75,115.7,-9999.0,'1111122,1111122,1111122' 
DISL,ioos:station:DISL:MHPA:1,2013-08-03T17:30:00Z,30.6671,-87.9365,8.5,1.11,307.9,-9999.0,'1111122,1111122,1111122' 
DISL,ioos:station:DISL:MHPA:1,2013-08-03T18:00:00Z,30.6671,-87.9365,8.5,3.2,205.8,-9999.0,'1111122,1111122,1111122' 
DISL,ioos:station:DISL:MHPA:1,2013-08-03T18:30:00Z,30.6671,-87.9365,8.5,2.72,214.2,-9999.0,'1111122,1111122,1111122' 
DISL,ioos:station:DISL:MHPA:1,2013-08-03T19:00:00Z,30.6671,-87.9365,8.5,2.59,208.0,-9999.0,'1111122,1111122,1111122' 
DISL,ioos:station:DISL:MHPA:1,2013-08-03T19:30:00Z,30.6671,-87.9365,8.5,2.04,219.6,-9999.0,'1111122,1111122,1111122' 
DISL,ioos:station:DISL:MHPA:1,2013-08-03T20:00:00Z,30.6671,-87.9365,8.5,2.53,240.0,-9999.0,'1111122,1111122,1111122' 
DISL,ioos:station:DISL:MHPA:1,2013-08-03T20:30:00Z,30.6671,-87.9365,8.5,1.44,82.9,-9999.0,'1111122,1111122,1111122' 
DISL,ioos:station:DISL:MHPA:1,2013-08-03T21:00:00Z,30.6671,-87.9365,8.5,3.67,220.3,-9999.0,'1111122,1111122,1111122' 
DISL,ioos:station:DISL:MHPA:1,2013-08-03T21:30:00Z,30.6671,-87.9365,8.5,3.19,220.8,-9999.0,'1111122,1111122,1111122' 
DISL,ioos:station:DISL:MHPA:1,2013-08-03T22:00:00Z,30.6671,-87.9365,8.5,2.81,216.9,-9999.0,'1111122,1111122,1111122' 
DISL,ioos:station:DISL:MHPA:1,2013-08-03T22:30:00Z,30.6671,-87.9365,8.5,3.81,214.5,-9999.0,'1111122,1111122,1111122' 
DISL,ioos:station:DISL:MHPA:1,2013-08-03T23:00:00Z,30.6671,-87.9365,8.5,4.2,208.7,-9999.0,'1111122,1111122,1111122' 
DISL,ioos:station:DISL:MHPA:1,2013-08-03T23:30:00Z,30.6671,-87.9365,8.5,4.74,211.9,-9999.0,'1111122,1111122,1111122' 
DISL,ioos:station:DISL:MHPA:1,2013-08-04T00:00:00Z,30.6671,-87.9365,8.5,4.4,213.8,-9999.0,'1111122,1111122,1111122' 
DISL,ioos:station:DISL:MHPA:1,2013-08-04T00:30:00Z,30.6671,-87.9365,8.5,4.09,220.7,-9999.0,'1111122,1111122,1111122' 
DISL,ioos:station:DISL:MHPA:1,2013-08-04T01:00:00Z,30.6671,-87.9365,8.5,3.53,232.2,-9999.0,'1111122,1111122,1111122' 
DISL,ioos:station:DISL:MHPA:1,2013-08-04T01:30:00Z,30.6671,-87.9365,8.5,3.81,244.0,-9999.0,'1111122,1111122,1111122' 
DISL,ioos:station:DISL:MHPA:1,2013-08-04T02:00:00Z,30.6671,-87.9365,8.5,4.66,235.2,-9999.0,'1111122,1111122,1111122' 
DISL,ioos:station:DISL:MHPA:1,2013-08-04T02:30:00Z,30.6671,-87.9365,8.5,4.06,232.0,-9999.0,'1111122,1111122,1111122' 
DISL,ioos:station:DISL:MHPA:1,2013-08-04T03:00:00Z,30.6671,-87.9365,8.5,3.7,240.7,-9999.0,'1111122,1111122,1111122' 
DISL,ioos:station:DISL:MHPA:1,2013-08-04T03:30:00Z,30.6671,-87.9365,8.5,3.54,233.5,-9999.0,'1111122,1111122,1111122' 
DISL,ioos:station:DISL:MHPA:1,2013-08-04T04:00:00Z,30.6671,-87.9365,8.5,3.55,229.8,-9999.0,'1111122,1111122,1111122' 
DISL,ioos:station:DISL:MHPA:1,2013-08-04T04:30:00Z,30.6671,-87.9365,8.5,3.33,222.4,-9999.0,'1111122,1111122,1111122' 
DISL,ioos:station:DISL:MHPA:1,2013-08-04T05:00:00Z,30.6671,-87.9365,8.5,3.24,236.9,-9999.0,'1111122,1111122,1111122' 
DISL,ioos:station:DISL:MHPA:1,2013-08-04T05:30:00Z,30.6671,-87.9365,8.5,3.2,243.0,-9999.0,'1111122,1111122,1111122' 
DISL,ioos:station:DISL:MHPA:1,2013-08-04T06:00:00Z,30.6671,-87.9365,8.5,2.66,238.1,-9999.0,'1111122,1111122,1111122' 
DISL,ioos:station:DISL:MHPA:1,2013-08-04T06:30:00Z,30.6671,-87.9365,8.5,2.77,242.7,-9999.0,'1111122,1111122,1111122' 
DISL,ioos:station:DISL:MHPA:1,2013-08-04T07:00:00Z,30.6671,-87.9365,8.5,2.24,239.7,-9999.0,'1111122,1111122,1111122' 
DISL,ioos:station:DISL:MHPA:1,2013-08-04T07:30:00Z,30.6671,-87.9365,8.5,2.17,253.8,-9999.0,'1111122,1111122,1111122' 
DISL,ioos:station:DISL:MHPA:1,2013-08-04T08:00:00Z,30.6671,-87.9365,8.5,0.48,337.6,-9999.0,'1111122,1111122,1111122' 
DISL,ioos:station:DISL:MHPA:1,2013-08-04T08:30:00Z,30.6671,-87.9365,8.5,0.61,343.6,-9999.0,'1111122,1111122,1111122' 
DISL,ioos:station:DISL:MHPA:1,2013-08-04T09:00:00Z,30.6671,-87.9365,8.5,0.94,5.926,-9999.0,'1111122,1111122,1111122' 
DISL,ioos:station:DISL:MHPA:1,2013-08-04T09:30:00Z,30.6671,-87.9365,8.5,0.71,23.21,-9999.0,'1111122,1111122,1111122' 
DISL,ioos:station:DISL:MHPA:1,2013-08-04T10:00:00Z,30.6671,-87.9365,8.5,0.25,30.5,-9999.0,'1111122,1111122,1111122' 
DISL,ioos:station:DISL:MHPA:1,2013-08-04T10:30:00Z,30.6671,-87.9365,8.5,0.93,332.7,-9999.0,'1111122,1111122,1111122' 
DISL,ioos:station:DISL:MHPA:1,2013-08-04T11:00:00Z,30.6671,-87.9365,8.5,0.91,333.4,-9999.0,'1111122,1111122,1111122' 
DISL,ioos:station:DISL:MHPA:1,2013-08-04T11:30:00Z,30.6671,-87.9365,8.5,1.21,1.981,-9999.0,'1111122,1111122,1111122' 
DISL,ioos:station:DISL:MHPA:1,2013-08-04T12:00:00Z,30.6671,-87.9365,8.5,0.1,314.7,-9999.0,'1111122,1111122,1111122' 
DISL,ioos:station:DISL:MHPA:1,2013-08-04T12:30:00Z,30.6671,-87.9365,8.5,0.63,44.59,-9999.0,'1111122,1111122,1111122' 
DISL,ioos:station:DISL:MHPA:1,2013-08-04T13:00:00Z,30.6671,-87.9365,8.5,0.9,345.8,-9999.0,'1111122,1111122,1111122' 
DISL,ioos:station:DISL:MHPA:1,2013-08-04T13:30:00Z,30.6671,-87.9365,8.5,2.28,320.3,-9999.0,'1111122,1111122,1111122' 
DISL,ioos:station:DISL:MHPA:1,2013-08-04T14:00:00Z,30.6671,-87.9365,8.5,2.67,316.2,-9999.0,'1111122,1111122,1111122' 
DISL,ioos:station:DISL:MHPA:1,2013-08-04T14:30:00Z,30.6671,-87.9365,8.5,2.77,322.7,-9999.0,'1111122,1111122,1111122' 
DISL,ioos:station:DISL:MHPA:1,2013-08-04T15:00:00Z,30.6671,-87.9365,8.5,2.2,327.4,-9999.0,'1111122,1111122,1111122' 
DISL,ioos:station:DISL:MHPA:1,2013-08-04T15:30:00Z,30.6671,-87.9365,8.5,2.99,319.3,-9999.0,'1111122,1111122,1111122' 
DISL,ioos:station:DISL:MHPA:1,2013-08-04T16:00:00Z,30.6671,-87.9365,8.5,3.14,322.7,-9999.0,'1111122,1111122,1111122' 
DISL,ioos:station:DISL:MHPA:1,2013-08-04T16:30:00Z,30.6671,-87.9365,8.5,4.04,315.2,-9999.0,'1111122,1111122,1111122' 
DISL,ioos:station:DISL:MHPA:1,2013-08-04T17:00:00Z,30.6671,-87.9365,8.5,3.69,315.3,-9999.0,'1111122,1111122,1111122' 
DISL,ioos:station:DISL:MHPA:1,2013-08-04T17:30:00Z,30.6671,-87.9365,8.5,2.72,327.5,-9999.0,'1111122,1111122,1111122' 
DISL,ioos:station:DISL:MHPA:1,2013-08-04T18:00:00Z,30.6671,-87.9365,8.5,1.78,319.6,-9999.0,'1111122,1111122,1111122' 
DISL,ioos:station:DISL:MHPA:1,2013-08-04T18:30:00Z,30.6671,-87.9365,8.5,2.16,300.6,-9999.0,'1111122,1111122,1111122' 
DISL,ioos:station:DISL:MHPA:1,2013-08-04T19:00:00Z,30.6671,-87.9365,8.5,2.34,253.5,-9999.0,'1111122,1111122,1111122' 
DISL,ioos:station:DISL:MHPA:1,2013-08-04T19:30:00Z,30.6671,-87.9365,8.5,3.57,199.0,-9999.0,'1111122,1111122,1111122' 
DISL,ioos:station:DISL:MHPA:1,2013-08-04T20:00:00Z,30.6671,-87.9365,8.5,3.37,205.0,-9999.0,'1111122,1111122,1111122' 
DISL,ioos:station:DISL:MHPA:1,2013-08-04T20:30:00Z,30.6671,-87.9365,8.5,3.89,199.1,-9999.0,'1111122,1111122,1111122' 
DISL,ioos:station:DISL:MHPA:1,2013-08-04T21:00:00Z,30.6671,-87.9365,8.5,3.29,203.8,-9999.0,'1111122,1111122,1111122' 
DISL,ioos:station:DISL:MHPA:1,2013-08-04T21:30:00Z,30.6671,-87.9365,8.5,1.83,117.4,-9999.0,'1111122,1111122,1111122' 
DISL,ioos:station:DISL:MHPA:1,2013-08-04T22:00:00Z,30.6671,-87.9365,8.5,1.85,128.8,-9999.0,'1111122,1111122,1111122' 
DISL,ioos:station:DISL:MHPA:1,2013-08-04T22:30:00Z,30.6671,-87.9365,8.5,4.35,12.21,-9999.0,'1111122,1111122,1111122' 
DISL,ioos:station:DISL:MHPA:1,2013-08-04T23:00:00Z,30.6671,-87.9365,8.5,2.06,70.7,-9999.0,'1111122,1111122,1111122' 
DISL,ioos:station:DISL:MHPA:1,2013-08-04T23:30:00Z,30.6671,-87.9365,8.5,1.49,48.53,-9999.0,'1111122,1111122,1111122' 
DISL,ioos:station:DISL:MHPA:1,2013-08-05T00:00:00Z,30.6671,-87.9365,8.5,1.79,34.7,-9999.0,'1111122,1111122,1111122' 
DISL,ioos:station:DISL:MHPA:1,2013-08-05T00:30:00Z,30.6671,-87.9365,8.5,1.41,43.02,-9999.0,'1111122,1111122,1111122' 
DISL,ioos:station:DISL:MHPA:1,2013-08-05T01:00:00Z,30.6671,-87.9365,8.5,0.58,14.54,-9999.0,'1111122,1111122,1111122' 
DISL,ioos:station:DISL:MHPA:1,2013-08-05T01:30:00Z,30.6671,-87.9365,8.5,1.24,33.16,-9999.0,'1111122,1111122,1111122' 
DISL,ioos:station:DISL:MHPA:1,2013-08-05T02:00:00Z,30.6671,-87.9365,8.5,0.44,357.4,-9999.0,'1111122,1111122,1111122' 
DISL,ioos:station:DISL:MHPA:1,2013-08-05T02:30:00Z,30.6671,-87.9365,8.5,0.76,105.6,-9999.0,'1111122,1111122,1111122' 
DISL,ioos:station:DISL:MHPA:1,2013-08-05T03:00:00Z,30.6671,-87.9365,8.5,0.06,297.4,-9999.0,'1111122,1111122,1111122' 
DISL,ioos:station:DISL:MHPA:1,2013-08-05T03:30:00Z,30.6671,-87.9365,8.5,0.49,56.14,-9999.0,'1111122,1111122,1111122' 
DISL,ioos:station:DISL:MHPA:1,2013-08-05T04:00:00Z,30.6671,-87.9365,8.5,0.1,60.89,-9999.0,'1111122,1111122,1111122' 
DISL,ioos:station:DISL:MHPA:1,2013-08-05T04:30:00Z,30.6671,-87.9365,8.5,0.8,58.71,-9999.0,'1111122,1111122,1111122' 